When you browse on this site, cookies collect data to enhance your experience and personalize the content and advertising you see.
Visit our Privacy Policy to learn more. By continuing to use the site, you agree to this use of cookies and data.
  • în România
  • Lista ţărilor
  • Pe 7 zile
  • Temperatura apei
  • Meteo pe hartă
  • Widget-uri
  • user-avatar
    Intrare

    Meteo pe oră la Rostock

    Astăzi, 18 Septembrie, Miercuri

    Timp Temperatura Precipitaţii Vânt Presiune Umiditate
    00:00 +7°C° 0 mm 8 m/s 760 mmHg 72%
    01:00 +8°C° 0 mm 7 m/s 761 mmHg 73%
    02:00 +8°C° 0 mm 7 m/s 761 mmHg 76%
    03:00 +8°C° 0 mm 7 m/s 761 mmHg 79%
    04:00 +8°C° 0 mm 7 m/s 761 mmHg 82%
    05:00 +9°C° 0 mm 7 m/s 762 mmHg 78%
    06:00 +9°C° 0 mm 8 m/s 762 mmHg 75%
    07:00 +10°C° 0 mm 8 m/s 762 mmHg 72%
    08:00 +10°C° 0 mm 9 m/s 763 mmHg 71%
    09:00 +10°C° 0 mm 9 m/s 763 mmHg 70%
    10:00 +11°C° 0 mm 9 m/s 763 mmHg 69%
    11:00 +11°C° 0 mm 9 m/s 763 mmHg 67%
    12:00 +11°C° 0 mm 9 m/s 764 mmHg 66%
    13:00 +11°C° 0 mm 9 m/s 764 mmHg 64%
    14:00 +11°C° 0 mm 9 m/s 764 mmHg 64%
    15:00 +11°C° 0 mm 9 m/s 764 mmHg 64%
    16:00 +11°C° 0 mm 8 m/s 764 mmHg 63%
    17:00 +10°C° 0.2 mm 8 m/s 764 mmHg 67%
    18:00 +10°C° 0.2 mm 8 m/s 764 mmHg 71%
    19:00 +10°C° 0.2 mm 7 m/s 764 mmHg 75%
    20:00 +9°C° 0.2 mm 7 m/s 765 mmHg 78%
    21:00 +9°C° 0.2 mm 7 m/s 765 mmHg 81%
    22:00 +9°C° 0.2 mm 7 m/s 766 mmHg 83%
    23:00 +8°C° 0 mm 7 m/s 766 mmHg 84%

    Mâine, 19 Septembrie, Joi

    Timp Temperatura Precipitaţii Vânt Presiune Umiditate
    00:00 +8°C° 0 mm 6 m/s 766 mmHg 84%
    01:00 +8°C° 0 mm 6 m/s 766 mmHg 85%
    02:00 +8°C° 0 mm 6 m/s 766 mmHg 85%
    03:00 +8°C° 0 mm 5 m/s 766 mmHg 85%
    04:00 +8°C° 0 mm 5 m/s 766 mmHg 85%
    05:00 +8°C° 0 mm 5 m/s 767 mmHg 84%
    06:00 +8°C° 0 mm 5 m/s 767 mmHg 84%
    07:00 +8°C° 0 mm 5 m/s 767 mmHg 83%
    08:00 +9°C° 0 mm 5 m/s 767 mmHg 78%
    09:00 +12°C° 0 mm 5 m/s 768 mmHg 73%
    10:00 +13°C° 0 mm 5 m/s 768 mmHg 69%
    11:00 +13°C° 0 mm 5 m/s 768 mmHg 67%
    12:00 +13°C° 0 mm 5 m/s 769 mmHg 65%
    13:00 +14°C° 0 mm 5 m/s 769 mmHg 63%
    14:00 +13°C° 0 mm 5 m/s 769 mmHg 63%
    15:00 +13°C° 0 mm 5 m/s 769 mmHg 64%
    16:00 +13°C° 0 mm 5 m/s 769 mmHg 64%
    17:00 +12°C° 0 mm 5 m/s 769 mmHg 68%
    18:00 +11°C° 0 mm 4 m/s 769 mmHg 72%
    19:00 +10°C° 0 mm 4 m/s 769 mmHg 76%
    20:00 +10°C° 0 mm 4 m/s 769 mmHg 79%
    21:00 +10°C° 0 mm 4 m/s 769 mmHg 81%
    22:00 +10°C° 0 mm 4 m/s 769 mmHg 84%
    23:00 +8°C° 0 mm 4 m/s 769 mmHg 86%

    Poimâine, 20 Septembrie, Vineri

    Timp Temperatura Precipitaţii Vânt Presiune Umiditate
    00:00 +8°C° 0 mm 4 m/s 769 mmHg 89%
    01:00 +8°C° 0 mm 4 m/s 769 mmHg 91%
    02:00 +8°C° 0 mm 4 m/s 769 mmHg 89%
    03:00 +8°C° 0 mm 4 m/s 769 mmHg 87%
    04:00 +8°C° 0 mm 4 m/s 769 mmHg 85%
    05:00 +9°C° 0 mm 3 m/s 769 mmHg 85%
    06:00 +10°C° 0 mm 3 m/s 769 mmHg 84%
    07:00 +10°C° 0 mm 3 m/s 769 mmHg 84%
    08:00 +12°C° 0 mm 2 m/s 769 mmHg 83%
    09:00 +13°C° 0 mm 2 m/s 769 mmHg 81%
    10:00 +13°C° 0 mm 2 m/s 769 mmHg 80%
    11:00 +14°C° 0.1 mm 2 m/s 769 mmHg 79%
    12:00 +14°C° 0.1 mm 2 m/s 769 mmHg 78%
    13:00 +14°C° 0.1 mm 3 m/s 769 mmHg 77%
    14:00 +15°C° 0.1 mm 2 m/s 769 mmHg 77%
    15:00 +15°C° 0.1 mm 2 m/s 769 mmHg 77%
    16:00 +16°C° 0.1 mm 2 m/s 769 mmHg 77%
    17:00 +15°C° 0 mm 2 m/s 769 mmHg 81%
    18:00 +14°C° 0 mm 1 m/s 769 mmHg 84%
    19:00 +13°C° 0 mm 1 m/s 769 mmHg 88%
    20:00 +12°C° 0 mm 1 m/s 769 mmHg 89%
    21:00 +12°C° 0 mm 1 m/s 769 mmHg 89%
    22:00 +11°C° 0 mm 1 m/s 769 mmHg 90%
    23:00 +11°C° 0 mm 1 m/s 769 mmHg 91%

    21 Septembrie, Sâmbătă

    Timp Temperatura Precipitaţii Vânt Presiune Umiditate
    00:00 +10°C° 0 mm 2 m/s 769 mmHg 92%
    01:00 +10°C° 0 mm 2 m/s 769 mmHg 92%
    02:00 +10°C° 0 mm 2 m/s 769 mmHg 93%
    03:00 +9°C° 0 mm 3 m/s 768 mmHg 93%
    04:00 +9°C° 0 mm 3 m/s 768 mmHg 94%
    05:00 +9°C° 0 mm 3 m/s 768 mmHg 93%
    06:00 +9°C° 0 mm 3 m/s 768 mmHg 92%
    07:00 +10°C° 0 mm 3 m/s 768 mmHg 92%
    08:00 +11°C° 0 mm 3 m/s 768 mmHg 85%
    09:00 +13°C° 0 mm 3 m/s 768 mmHg 78%
    10:00 +16°C° 0 mm 3 m/s 768 mmHg 71%
    11:00 +17°C° 0 mm 3 m/s 768 mmHg 67%
    12:00 +18°C° 0 mm 2 m/s 767 mmHg 63%
    13:00 +19°C° 0 mm 2 m/s 767 mmHg 59%
    14:00 +19°C° 0 mm 2 m/s 766 mmHg 57%
    15:00 +19°C° 0 mm 2 m/s 766 mmHg 56%
    16:00 +19°C° 0 mm 3 m/s 765 mmHg 54%
    17:00 +17°C° 0 mm 3 m/s 765 mmHg 60%
    18:00 +14°C° 0 mm 3 m/s 765 mmHg 65%
    19:00 +12°C° 0 mm 3 m/s 765 mmHg 71%
    20:00 +12°C° 0 mm 4 m/s 765 mmHg 71%
    21:00 +11°C° 0 mm 4 m/s 764 mmHg 72%
    22:00 +11°C° 0 mm 4 m/s 764 mmHg 72%
    23:00 +10°C° 0 mm 4 m/s 764 mmHg 73%

    22 Septembrie, Duminică

    Timp Temperatura Precipitaţii Vânt Presiune Umiditate
    00:00 +10°C° 0 mm 4 m/s 763 mmHg 73%
    01:00 +10°C° 0 mm 4 m/s 763 mmHg 73%
    02:00 +8°C° 0 mm 4 m/s 762 mmHg 74%
    03:00 +8°C° 0 mm 4 m/s 762 mmHg 75%
    04:00 +8°C° 0 mm 4 m/s 761 mmHg 77%
    05:00 +8°C° 0 mm 5 m/s 761 mmHg 77%
    06:00 +8°C° 0 mm 5 m/s 760 mmHg 77%
    07:00 +8°C° 0 mm 5 m/s 760 mmHg 77%
    08:00 +10°C° 0 mm 5 m/s 760 mmHg 72%
    09:00 +13°C° 0 mm 5 m/s 760 mmHg 67%
    10:00 +14°C° 0 mm 5 m/s 760 mmHg 62%
    11:00 +17°C° 0 mm 4 m/s 759 mmHg 60%
    12:00 +18°C° 0 mm 4 m/s 759 mmHg 57%
    13:00 +20°C° 0 mm 4 m/s 758 mmHg 55%
    14:00 +19°C° 0 mm 3 m/s 758 mmHg 59%
    15:00 +18°C° 0 mm 3 m/s 757 mmHg 63%
    16:00 +17°C° 0 mm 2 m/s 757 mmHg 67%
    17:00 +17°C° 0 mm 2 m/s 757 mmHg 68%
    18:00 +16°C° 0 mm 2 m/s 757 mmHg 70%
    19:00 +16°C° 0 mm 2 m/s 756 mmHg 72%
    20:00 +16°C° 0 mm 2 m/s 756 mmHg 72%
    21:00 +15°C° 0 mm 2 m/s 756 mmHg 73%
    22:00 +15°C° 0 mm 2 m/s 756 mmHg 74%
    23:00 +15°C° 0 mm 2 m/s 756 mmHg 75%

    23 Septembrie, Luni

    Timp Temperatura Precipitaţii Vânt Presiune Umiditate
    00:00 +15°C° 0 mm 2 m/s 756 mmHg 76%
    01:00 +14°C° 0 mm 2 m/s 756 mmHg 77%
    02:00 +15°C° 0 mm 2 m/s 756 mmHg 77%
    03:00 +15°C° 0 mm 2 m/s 755 mmHg 77%
    04:00 +15°C° 0 mm 1 m/s 755 mmHg 77%
    05:00 +15°C° 0 mm 1 m/s 755 mmHg 79%
    06:00 +15°C° 0 mm 1 m/s 755 mmHg 81%
    07:00 +15°C° 0 mm 1 m/s 755 mmHg 82%
    08:00 +18°C° 0 mm 1 m/s 755 mmHg 79%
    09:00 +20°C° 0 mm 1 m/s 755 mmHg 75%
    10:00 +21°C° 0 mm 1 m/s 756 mmHg 71%
    11:00 +20°C° 0.1 mm 2 m/s 756 mmHg 74%
    12:00 +20°C° 0.1 mm 2 m/s 756 mmHg 76%
    13:00 +20°C° 0.1 mm 3 m/s 756 mmHg 79%
    14:00 +19°C° 0.8 mm 4 m/s 756 mmHg 83%
    15:00 +18°C° 0.8 mm 4 m/s 756 mmHg 88%
    16:00 +15°C° 0.8 mm 5 m/s 756 mmHg 92%
    17:00 +15°C° 2.2 mm 5 m/s 756 mmHg 93%
    18:00 +15°C° 2.2 mm 5 m/s 757 mmHg 94%
    19:00 +15°C° 2.2 mm 5 m/s 757 mmHg 95%
    20:00 +14°C° 1.6 mm 5 m/s 757 mmHg 95%
    21:00 +14°C° 1.6 mm 4 m/s 757 mmHg 95%
    22:00 +14°C° 1.6 mm 4 m/s 757 mmHg 95%
    23:00 +14°C° 1.9 mm 4 m/s 757 mmHg 95%
    Arată mai mult